Current Weather Conditions: station 62114

sailwx.info

See reports from other nearby stations

no recent reports received from weather station ID 62114

Tides Pressure Air temp Water temp Dewpoint Dewpoint depression Visibility Wind speed Wind direction Waves Ship positions
date/time (UTC)wind fromknots sea level pressurealtimeterstation pressurevisibilityair tempwater tempwave heightnotes
2016-Feb-13 13:00 010 9 4.3
2016-Feb-13 12:00 360 11 4.8
2016-Feb-13 11:00 330 4 4.6
2016-Feb-13 10:00 350 3 3.5
2016-Feb-13 09:00 010 9 6.8
2016-Feb-13 08:00 040 9 6.3
2016-Feb-13 07:00 030 7 5.5
2016-Feb-13 06:00 020 7 5.4
2016-Feb-13 05:00 010 7 5.4
2016-Feb-13 04:00 010 7 5.4
2016-Feb-13 03:00 040 9 6.6
2016-Feb-13 02:00 040 10 7.1
2016-Feb-13 01:00 040 7 8.0
2016-Feb-13 00:00 060 10 7.0
2016-Feb-12 23:00 060 9 6.2
2016-Feb-12 22:00 070 10 6.7
2016-Feb-12 21:00 070 11 5.6
2016-Feb-12 20:00 070 13 6.3
2016-Feb-12 19:00 080 15 5.8
2016-Feb-12 18:00 080 15 5.9
2016-Feb-12 07:00 090 25 5.8
2016-Feb-12 06:00 090 25 6.4
2016-Feb-12 05:00 100 25 7.2
2016-Feb-12 04:00 100 24 6.3
2016-Feb-12 03:00 100 24 5.8
2016-Feb-12 02:00 090 27 4.6
2016-Feb-12 01:00 090 25 5.2
2016-Feb-12 00:00 080 29 4.9
2016-Feb-11 23:00 080 31 4.5
2016-Feb-11 22:00 090 26 7.3
2016-Feb-11 21:00 080 19 8.9
2016-Feb-11 20:00 070 12 7.3
2016-Feb-11 19:00 050 13 7.1
2016-Feb-11 18:00 040 12 6.8
2016-Feb-11 17:00 070 12 8.3
2016-Feb-11 16:00 040 14 7.2
2016-Feb-11 15:00 020 14 6.6